Idabel, OK

8:54 AM CDT on October 17, 2017 (GMT -0500)
Idabel

Weather History for K4O4 - May, 2014

Change the Weather History Date:

Thursday, May 8, 2014

  Actual Average (KPRX) Record (KPRX)
Temperature  
Mean Temperature 68 °F -  
Max Temperature 73 °F 77 °F 87 °F (2003)
Min Temperature 62 °F 58 °F 55 °F (1999)
Cooling Degree Days 2    
Growing Degree Days 18 (Base 50)    
Moisture  
Dew Point 64 °F    
Average Humidity 86    
Maximum Humidity 100    
Minimum Humidity 69    
Precipitation  
Precipitation 0.01 in - - ()
Sea Level Pressure  
Sea Level Pressure 29.88 in    
Wind  
Wind Speed 8 mph (SE)    
Max Wind Speed 15 mph    
Max Gust Speed 26 mph    
Visibility 8 miles    
Events      
Averages and records for this station are not official NWS values.
T = Trace of Precipitation, MM = Missing Value Source: NWS Daily Summary

Daily Weather History Graph

Daily Weather History Graph

Search for Another Location

Airport or City:

Trip Planner

Search our weather history database for the weather conditions in past years. The results will help you decide how hot, cold, wet, or windy it might be!

Date:

Astronomy

May. 08, 2014 Rise Set
Actual Time 6:23 AM CDT 8:08 PM CDT
Civil Twilight 5:56 AM CDT 8:35 PM CDT
Nautical Twilight 5:23 AM CDT 9:08 PM CDT
Astronomical Twilight 4:49 AM CDT 9:43 PM CDT
Moon 2:26 PM CDT (5/8) 2:38 AM CDT (5/8)
Length of Visible Light 14h 39m
Length of Day
13h 44m
Waxing Gibbous, 65% of the Moon is Illuminated
May 8
Waxing Gibbous
May 14
Full
May 21
Last Quarter
May 28
New
Jun 5
First Quarter

Hourly Weather History & Observations

Time (CDT) Temp. Dew Point Humidity Pressure Visibility Wind Dir Wind Speed Gust Speed Precip Events Conditions
12:01 AM 71.6 °F 60.8 °F 69% 29.88 in 10.0 mi SSE 9.2 mph - N/A   Clear
12:21 AM 71.6 °F 60.8 °F 69% 29.88 in 10.0 mi SSE 6.9 mph - N/A   Clear
12:41 AM 71.6 °F 60.8 °F 69% 29.89 in 10.0 mi South 11.5 mph 16.1 mph N/A   Clear
1:01 AM 71.6 °F 60.8 °F 69% 29.89 in 10.0 mi SSE 9.2 mph - N/A   Scattered Clouds
1:21 AM 69.8 °F 60.8 °F 73% 29.88 in 10.0 mi SSE 9.2 mph - N/A   Scattered Clouds
1:41 AM 69.8 °F 60.8 °F 73% 29.89 in 10.0 mi SSE 8.1 mph - N/A   Clear
2:01 AM 69.8 °F 60.8 °F 73% 29.89 in 10.0 mi SE 8.1 mph - N/A   Clear
2:21 AM 69.8 °F 60.8 °F 73% 29.89 in 10.0 mi SE 5.8 mph - N/A   Clear
2:41 AM 68.0 °F 60.8 °F 78% 29.90 in 10.0 mi SE 4.6 mph - N/A   Scattered Clouds
3:01 AM 68.0 °F 62.6 °F 83% 29.93 in 10.0 mi Calm Calm - N/A   Mostly Cloudy
3:21 AM 69.8 °F 62.6 °F 78% 29.92 in 10.0 mi Calm Calm - N/A   Overcast
3:41 AM 68.0 °F 62.6 °F 83% 29.92 in 10.0 mi East 4.6 mph - N/A   Mostly Cloudy
4:01 AM 68.0 °F 62.6 °F 83% 29.91 in 10.0 mi East 6.9 mph - N/A   Overcast
4:21 AM 69.8 °F 62.6 °F 78% 29.92 in 10.0 mi East 5.8 mph - N/A   Overcast
4:41 AM 69.8 °F 62.6 °F 78% 29.91 in 10.0 mi East 8.1 mph - N/A   Mostly Cloudy
5:01 AM 68.0 °F 62.6 °F 83% 29.91 in 10.0 mi East 8.1 mph - N/A   Mostly Cloudy
5:21 AM 68.0 °F 62.6 °F 83% 29.90 in 10.0 mi ESE 8.1 mph - N/A   Scattered Clouds
5:41 AM 68.0 °F 62.6 °F 83% 29.90 in 10.0 mi ESE 9.2 mph - N/A   Scattered Clouds
6:01 AM 68.0 °F 64.4 °F 88% 29.89 in 10.0 mi ESE 9.2 mph - N/A   Scattered Clouds
6:21 AM 68.0 °F 64.4 °F 88% 29.89 in 10.0 mi ESE 9.2 mph - N/A   Clear
6:41 AM 68.0 °F 64.4 °F 88% 29.90 in 10.0 mi SE 8.1 mph - N/A   Clear
7:01 AM 69.8 °F 64.4 °F 83% 29.90 in 10.0 mi ESE 9.2 mph - N/A   Scattered Clouds
7:21 AM 69.8 °F 64.4 °F 83% 29.90 in 10.0 mi ESE 9.2 mph - N/A   Mostly Cloudy
7:41 AM 69.8 °F 66.2 °F 88% 29.90 in 10.0 mi ESE 10.4 mph - N/A   Scattered Clouds
8:01 AM 71.6 °F 66.2 °F 83% 29.89 in 10.0 mi ESE 13.8 mph 17.3 mph N/A   Scattered Clouds
8:21 AM 71.6 °F 66.2 °F 83% 29.89 in 10.0 mi SE 11.5 mph 18.4 mph N/A   Scattered Clouds
8:41 AM 71.6 °F 66.2 °F 83% 29.89 in 10.0 mi SE 13.8 mph 20.7 mph N/A   Mostly Cloudy
9:01 AM 73.4 °F 66.2 °F 78% 29.89 in 10.0 mi SE 13.8 mph 19.6 mph N/A   Mostly Cloudy
9:21 AM 73.4 °F 66.2 °F 78% 29.90 in 10.0 mi SE 10.4 mph 18.4 mph N/A   Mostly Cloudy
9:41 AM 73.4 °F 66.2 °F 78% 29.91 in 10.0 mi SE 6.9 mph - N/A   Overcast
10:01 AM 71.6 °F 66.2 °F 83% 29.89 in 10.0 mi SE 10.4 mph - N/A   Overcast
10:21 AM 71.6 °F 66.2 °F 83% 29.88 in 10.0 mi SSE 4.6 mph - N/A   Overcast
10:41 AM 71.6 °F 66.2 °F 83% 29.87 in 4.0 mi SE 9.2 mph - 0.01 in   Overcast
11:02 AM 71.6 °F 66.2 °F 83% 29.87 in 2.5 mi SE 9.2 mph - N/A   Overcast
11:21 AM 71.6 °F 68.0 °F 88% 29.87 in 7.0 mi SSE 9.2 mph - N/A   Mostly Cloudy
12:01 PM 71.6 °F 68.0 °F 88% 29.86 in 7.0 mi SSE 8.1 mph - N/A   Mostly Cloudy
12:21 PM 71.6 °F 68.0 °F 88% 29.86 in 7.0 mi SSE 10.4 mph - N/A   Scattered Clouds
12:41 PM 71.6 °F 68.0 °F 88% 29.87 in 7.0 mi SSE 11.5 mph - N/A   Mostly Cloudy
1:01 PM 71.6 °F 68.0 °F 88% 29.89 in 4.0 mi SSW 8.1 mph - N/A   Overcast
1:21 PM 66.2 °F 62.6 °F 88% 29.92 in 1.2 mi WNW 4.6 mph - N/A   Overcast
1:41 PM 64.4 °F 62.6 °F 94% 29.92 in 2.0 mi NW 4.6 mph - N/A   Overcast
2:01 PM 64.4 °F 62.6 °F 94% 29.93 in 4.0 mi Calm Calm - N/A   Scattered Clouds
2:21 PM 64.4 °F 62.6 °F 94% 29.91 in 5.0 mi NE 4.6 mph - N/A   Clear
2:41 PM 64.4 °F 62.6 °F 94% 29.91 in 0.8 mi NE 3.5 mph - N/A   Overcast
3:01 PM 66.2 °F 64.4 °F 94% 29.90 in 3.0 mi Calm Calm - N/A   Overcast
3:21 PM 66.2 °F 64.4 °F 94% 29.89 in 0.8 mi NW 4.6 mph - N/A   Overcast
4:01 PM 66.2 °F 64.4 °F 94% 29.85 in 3.0 mi East 8.1 mph - N/A   Overcast
4:21 PM 66.2 °F 64.4 °F 94% 29.84 in 5.0 mi ENE 4.6 mph - N/A   Overcast
4:41 PM 66.2 °F 64.4 °F 94% 29.84 in 5.0 mi East 3.5 mph - N/A   Mostly Cloudy
5:01 PM 68.0 °F 66.2 °F 94% 29.84 in 4.0 mi East 3.5 mph - N/A   Mostly Cloudy
5:21 PM 69.8 °F 66.2 °F 88% 29.84 in 2.0 mi SSE 11.5 mph 17.3 mph N/A   Overcast
5:41 PM 69.8 °F 68.0 °F 94% 29.84 in 3.0 mi SSE 9.2 mph - N/A   Overcast
6:01 PM 69.8 °F 66.2 °F 88% 29.83 in 4.0 mi SSE 13.8 mph 18.4 mph N/A   Overcast
6:21 PM 69.8 °F 66.2 °F 88% 29.82 in 3.0 mi South 11.5 mph - N/A   Overcast
6:41 PM 69.8 °F 66.2 °F 88% 29.83 in 10.0 mi South 10.4 mph - N/A   Overcast
7:01 PM 66.2 °F 64.4 °F 94% 29.85 in 0.8 mi North 3.5 mph 26.5 mph N/A   Overcast
7:21 PM 64.4 °F 62.6 °F 94% 29.85 in 7.0 mi SSE 10.4 mph 16.1 mph N/A   Mostly Cloudy
8:01 PM 64.4 °F 62.6 °F 94% 29.85 in 10.0 mi East 5.8 mph - N/A   Scattered Clouds
8:21 PM 64.4 °F 62.6 °F 94% 29.83 in 10.0 mi East 8.1 mph - N/A   Scattered Clouds
8:41 PM 64.4 °F 62.6 °F 94% 29.86 in 5.0 mi ESE 6.9 mph - N/A   Mostly Cloudy
9:01 PM 64.4 °F 62.6 °F 94% 29.84 in 7.0 mi East 13.8 mph - N/A   Overcast
9:21 PM 62.6 °F 60.8 °F 94% 29.87 in 10.0 mi South 10.4 mph - N/A   Mostly Cloudy
9:41 PM 64.4 °F 62.6 °F 94% 29.88 in 7.0 mi SSE 8.1 mph - N/A   Mostly Cloudy
10:01 PM 62.6 °F 60.8 °F 94% 29.83 in 10.0 mi SSE 15.0 mph 23.0 mph N/A   Mostly Cloudy
10:21 PM 62.6 °F 60.8 °F 94% 29.85 in 10.0 mi Calm Calm - N/A   Clear
10:41 PM 62.6 °F 62.6 °F 100% 29.93 in 10.0 mi SSW 10.4 mph - N/A   Mostly Cloudy
11:01 PM 64.4 °F 62.6 °F 94% 29.89 in 10.0 mi West 12.7 mph 20.7 mph N/A   Overcast
11:21 PM 64.4 °F 62.6 °F 94% 29.89 in 10.0 mi SSW 6.9 mph - N/A   Overcast
11:41 PM 64.4 °F 62.6 °F 94% 29.89 in 10.0 mi South 9.2 mph - N/A   Overcast